Regional Weather Roundup
Issued by NWS

Home | Current Version | Previous Version | Text Only | Print | Product List | Glossary On
Versions: 1 2 3 4 5 6 7 8 9 10 11 12 13 14 15 16 17 18 19 20 21 22 23 24 25 26 27
000
ASUS46 KPQR 240810
RWROR

OREGON REGIONAL WEATHER ROUNDUP
NATIONAL WEATHER SERVICE PORTLAND OR
100 AM PDT THU APR 24 2014

NOTE: "FAIR" INDICATES FEW OR NO CLOUDS BELOW 12,000 FEET WITH
NO SIGNIFICANT WEATHER AND/OR OBSTRUCTIONS TO VISIBILITY.

ORZ001>013-240900-
NORTHWEST OREGON


CITY           SKY/WX    TMP DP  RH WIND       PRES   REMARKS
ASTORIA        LGT RAIN  53  50  89 S18G35    29.64S FOG
NEWPORT        RAIN      52  52 100 S30G39    29.83R
PORTLAND       CLOUDY    54  49  83 S10       29.75F
VANCOUVER WA   CLOUDY    54  48  80 S12G20    29.75F
SCAPPOOSE      LGT RAIN  53  50  89 SE13      29.71F
HILLSBORO      LGT RAIN  53  49  86 S13G24    29.73S
AURORA         CLOUDY    53  51  93 S17G28    29.78S
MCMINNVILLE    LGT RAIN  53  51  93 S13       29.76R
SALEM          LGT RAIN  53  50  89 S20G25    29.79R
CORVALLIS      CLOUDY    54  48  82 S12       29.81F
EUGENE         LGT RAIN  52  49  89 S10       29.83S
$$

ORZ021-028-240900-
SOUTHWEST OREGON


CITY           SKY/WX    TMP DP  RH WIND       PRES   REMARKS
NORTH BEND     CLOUDY    54  54 100 S16G25    29.86F
BROOKINGS      RAIN     N/A N/A N/A S16G23    30.01S
ROSEBURG       LGT RAIN  52  49  89 CALM      29.88F
SEXTON SUMMIT  LGT RAIN  40  40 100 S20G30    29.90S VSB 1/4 WCI  30
MEDFORD        CLOUDY    51  48  89 CALM      29.94R
$$

ORZ009-041-240900-
COLUMBIA GORGE


CITY           SKY/WX    TMP DP  RH WIND       PRES   REMARKS
TROUTDALE      CLOUDY    55  48  77 VRB5      29.75F
THE DALLES     CLOUDY    50  49  96 CALM      29.76F
$$

ORZ029>031-042>050-061>064-240900-
EASTERN OREGON


CITY           SKY/WX    TMP DP  RH WIND       PRES   REMARKS
REDMOND        CLOUDY    48  36  63 S17G28    29.80F
BEND           CLOUDY    45  37  76 S6        29.83F
KLAMATH FALLS  CLOUDY    43  39  86 SE6       29.96R
LAKEVIEW       CLOUDY    43  36  75 S12       30.00S
HERMISTON      LGT RAIN  52  47  83 SE7       29.76F
PENDLETON      LGT RAIN  49  42  77 SE9       29.79F
JOHN DAY       CLOUDY    46  37  71 SW13G24   29.87F
MEACHAM        RAIN      40  39  97 CALM      29.83F FOG
LA GRANDE      CLOUDY    46  34  61 S6        29.85S
BAKER CITY     CLOUDY    45  35  68 E9        29.88F
BURNS          LGT RAIN  42  40  92 CALM      29.92F
ROME             N/A     50  25  37 SW12      29.94R
ONTARIO        LGT RAIN  50  40  68 CALM      29.94R
$$



USA.gov is the U.S. government's official web portal to all federal, state and local government web resources and services.